Lid_Strength_Index
6 6 6 8 9 8 10 11 11 10 9 7 8 7 7 6 6 5 5 5 4 3 3 3 2 2 2 1 1 1 1 0
6 6 6 7 7 10 10 14 14 11 12 10 9 8 8 8 7 6 5 5 4 4 3 2 2 2 1 1 1 1 0 0
7 7 8 8 9 10 9 10 12 13 10 7 8 7 7 7 6 5 5 5 4 4 3 2 2 2 2 1 1 1 1 0
8 7 6 7 8 8 10 12 11 11 10 6 7 7 7 7 6 5 4 4 4 4 3 3 3 2 2 1 1 1 0 0
10 8 7 8 8 8 9 9 12 12 10 7 7 7 6 7 6 5 5 4 4 4 4 3 3 2 2 1 1 1 1 0
11 9 8 9 9 9 8 10 11 10 9 7 7 8 7 6 6 5 5 5 4 4 4 3 3 2 2 1 1 1 1 1
8 9 9 8 8 9 9 9 10 9 9 7 6 7 6 6 6 6 6 5 4 4 3 3 3 2 2 1 1 1 1 1
10 9 8 9 8 8 8 8 8 8 9 6 6 6 6 6 6 6 6 5 4 4 3 3 3 2 2 2 1 1 1 1
11 10 10 11 9 9 8 7 8 10 8 7 7 7 6 6 6 6 6 5 4 4 3 3 2 2 2 1 1 1 1 1
10 11 14 9 7 7 8 8 7 8 8 7 7 6 6 5 5 5 5 4 4 3 3 2 2 2 1 1 1 1 1 1
12 12 10 9 9 9 9 9 8 8 7 7 7 6 7 5 4 4 4 4 3 4 4 4 3 3 3 2 2 2 2 1
12 13 14 9 8 7 8 11 8 7 7 7 7 9 9 5 5 5 4 5 5 5 5 4 5 4 3 3 3 3 4 4
12 13 11 8 8 7 12 10 7 7 7 7 8 7 6 6 6 6 5 6 5 5 6 6 5 5 5 5 6 4 3 5
11 12 14 7 8 10 9 7 7 6 6 7 6 6 6 7 7 6 6 6 6 7 7 7 6 6 7 6 6 6 5 6
9 9 8 6 7 6 6 7 6 6 5 5 6 6 6 6 6 5 4 6 6 6 7 7 7 6 7 7 6 6 6 7
10 8 8 7 6 5 5 6 5 5 5 4 5 5 5 4 4 5 6 6 6 6 7 8 6 7 7 6 6 6 7 7
10 8 7 6 5 5 5 5 5 4 4 4 4 4 4 4 5 5 5 5 5 6 6 7 7 7 6 7 7 8 8 8
10 7 7 7 5 5 5 5 5 5 5 4 4 4 4 6 6 5 5 5 6 6 6 7 7 8 7 7 7 7 8 8
7 5 5 5 4 4 5 4 4 4 4 4 4 4 4 4 4 5 5 5 5 6 6 6 7 7 7 7 6 7 8 9